Regional Weather Roundup
Issued by NWS

Home | Current Version | Previous Version | Graphics & Text | Print | Product List | Glossary On
Versions: 1 2 3 4 5 6 7 8 9 10 11 12 13 14 15 16 17 18 19 20 21 22 23 24 25 26 27 28 29 30 31 32 33 34 35 36 37 38 39 40 41 42 43 44 45 46 47 48 49 50
000
ASUS43 KLOT 132010
RWRIL

ILLINOIS REGIONAL WEATHER ROUNDUP
NATIONAL WEATHER SERVICE CHICAGO/ROMEOVILLE IL
300 PM CDT SUN JUL 13 2014

NOTE: "FAIR" INDICATES FEW OR NO CLOUDS BELOW 12,000 FEET WITH NO
SIGNIFICANT WEATHER AND/OR OBSTRUCTIONS TO VISIBILITY.

* THESE STATIONS ARE NOT UNDER NWS QUALITY CONTROL. THEY ALSO MAY NOT
  REPORT WEATHER SUCH AS PRECIPITATION OR FOG.

ILZ001-002-007-009-015-016-024-132100-
NORTHWEST ILLINOIS

CITY           SKY/WX    TMP DP  RH WIND       PRES   REMARKS
MOLINE         MOSUNNY   84  66  54 W10       29.94F HX  86
STERLING*      MOSUNNY   84  72  65 W10       29.94F HX  89
SAVANNA*       MOSUNNY   84  65  51 W7        29.92F HX  86
$$

ILZ003-004-008-010-011-017-018-132100-
NORTH CENTRAL ILLINOIS

CITY           SKY/WX    TMP DP  RH WIND       PRES   REMARKS
ROCKFORD       MOSUNNY   83  65  54 W13       29.92F HX  85
FREEPORT*      PTSUNNY   78  68  69 SW9       29.94F HX  80
ROCHELLE*      MOSUNNY   82  65  57 W7        29.93F HX  83
DE KALB*       MOSUNNY   80  66  60 W12       29.94F HX  82
PERU*          SUNNY     82  64  52 NW7       29.94F HX  84
$$

ILZ005-006-012>014-019>023-132100-
NORTHEAST ILLINOIS

CITY           SKY/WX    TMP DP  RH WIND       PRES   REMARKS
CHICAGO-OHARE  MOSUNNY   83  60  45 W13       29.91S HX  83
CHICAGO-MIDWAY MOSUNNY   85  58  39 W14       29.91F HX  84
AURORA         MOSUNNY   82  65  56 W10       29.93F HX  84
LANSING*       SUNNY     82  61  48 W9        29.92F HX  82
JOLIET*        SUNNY     82  60  47 NW5       29.93F HX  82
WAUKEGAN       SUNNY     82  62  50 SW8G18    29.89F HX  83
DUPAGE AIRPORT SUNNY     84  64  50 W12       29.92S HX  85
KANKAKEE*      MOSUNNY   81  69  66 W7        29.94F HX  84
WHEELING       MOSUNNY   84  61  45 W10       29.91F HX  84
MORRIS*        SUNNY     82  66  58 W7        29.93F HX  85
ROMEOVILLE*    SUNNY     82  60  47 NW8       29.92F HX  82
NORTHERLY ISL    N/A     73  68  84 E8          N/A
$$

LMZ740>746-132100-
SOUTHERN LAKE MICHIGAN

STATION/POSITION SKY/WX   TEMP    WIND        PRES    VSBY  WAVE
                          AIR SEA DIR/SP/G                  HT/PER
                          (F)     (DEG/KT/KT) (MB)    (MI)  (FT/S)
SOUTHERN BUOY              64 62  190/ 12/ 14 1012.1F         1
WAUKEGAN HARBOR            80     280/ 12/ 20 1012.9F
HARRISON CRIB              73     130/ 11/ 12   N/A
BURNHAM HARBOR             74      90/  6/ 10   N/A
CALUMET HARBOR             76     110/  9/ 11 1013.6F
MICHIGAN CITY              78      CALM  /  1   N/A
$$

ILZ025>027-034>036-040-047-049-050-058-095>099-132100-
WEST-CENTRAL ILLINOIS

CITY           SKY/WX    TMP DP  RH WIND       PRES   REMARKS
QUINCY         PTSUNNY   82  68  62 CALM      29.98F HX  85
GALESBURG*     SUNNY     88  70  55 NW5       29.96F HX  92
MACOMB*        SUNNY     81  68  64 W3        29.99F HX  84
JACKSONVILLE*  MOSUNNY   84  72  65 W6        29.98F HX  89
PITTSFIELD*    MOSUNNY   83  69  62 N3        29.98F HX  87
$$

ILZ028>032-037-038-041>044-048-051>054-059>061-132100-
CENTRAL ILLINOIS

CITY           SKY/WX    TMP DP  RH WIND       PRES   REMARKS
PONTIAC        MOSUNNY   82  70  65 NW6       29.95F HX  86
BLOOMINGTON    MOSUNNY   80  63  56 CALM      29.98F HX  81
DECATUR        PTSUNNY   81  71  71 SW7       29.96F HX  85
PEORIA         SUNNY     84  66  54 VRB3      29.96S HX  86
LACON*         SUNNY     82  66  58 W3        29.94F HX  84
LINCOLN*       PTSUNNY   83  69  62 CALM      29.93F HX  86
SPRINGFIELD    MOSUNNY   86  70  58 VRB3      29.96F HX  90
TAYLORVILLE    PTSUNNY   79  72  78 W5        29.96F HX  82
$$

ILZ033-039-045-046-055>057-062-063-132100-
EAST-CENTRAL ILLINOIS

CITY           SKY/WX    TMP DP  RH WIND       PRES   REMARKS
CHAMPAIGN      PTSUNNY   81  70  69 NW5       29.96F HX  84
RANTOUL*       MOSUNNY   83  66  56 SW3       29.97F HX  85
MATTOON        PTSUNNY   84  72  67 NW13      29.95F HX  89
PARIS*         CLOUDY    81  74  79 W7        29.97F HX  86
$$

ILZ079-100>102-132100-
SOUTHWEST ILLINOIS

CITY           SKY/WX    TMP DP  RH WIND       PRES   REMARKS
ALTON          PTSUNNY   86  75  70 W9        29.97F HX  95
BELLEVILLE     MOSUNNY   89  73  59 SW6       29.94F HX  97
CAHOKIA*       MOSUNNY   89  69  51 W5        29.95F HX  93
SPARTA*        MOSUNNY   88  70  55 CALM      29.97F HX  92
$$

ILZ064>066-069>071-074>076-080>082-084>086-088>090-092>094-132100-
SOUTH-CENTRAL ILLINOIS

CITY           SKY/WX    TMP DP  RH WIND       PRES   REMARKS
CARBONDALE     MOSUNNY   90  72  55 W7        29.96F HX  97
CAIRO*         SUNNY     93  74  52 S8        29.97F HX 103
MARION         PTSUNNY   91  75  59 SW9       29.97F HX 102
MT. VERNON     MOSUNNY   91  72  52 W7        29.96F HX  98
CENTRALIA*     SUNNY     96  67  37 W3        29.95F HX 100
SALEM*         SUNNY     91  73  56 W7        29.96F HX  99
METROPOLIS*    SUNNY     92  67  43 SW13G21   29.96F HX  96
$$

ILZ067-068-072-073-078-083-087-091-132100-
SOUTHEAST ILLINOIS

CITY           SKY/WX    TMP DP  RH WIND       PRES   REMARKS
FLORA*         MOSUNNY   90  71  53 W10G17    29.95F HX  95
HARRISBURG*    MOSUNNY   91  72  54 W10       29.97F HX  98
ROBINSON*      PTSUNNY   87  75  67 W6        29.94F HX  96
CARMI*         MOSUNNY   91  73  54 W12       29.94F HX  99
$$

ABBREVIATIONS USED IN REMARKS
   TC - TEMPERATURE IN CELSIUS
  WCI - WIND CHILL INDEX
   HX - HEAT INDEX
  VSB - VISIBILITY
$$




USA.gov is the U.S. government's official web portal to all federal, state and local government web resources and services.